Location: Helensbirgh
(56.0153°N, 4.7348°W)
Time: 07:41:29
(UTC+00:00)

Envisat - Pass Details

Date: 18 October 2019
Orbit: 764 x 766 km, 98.1° (Epoch: 19 November)

Event Time Altitude Azimuth Distance (km) Brightness Sun altitude
Rises 06:44:49 0° 26° (NNE) 3,248 6.6 -10.6°
Reaches altitude 10° 06:48:18 10° 51° (NE) 2,315 6.3 -10.1°
Maximum altitude 06:50:58 14° 83° (E) 2,032 6.6 -9.7°
Drops below altitude 10° 06:53:38 10° 115° (ESE) 2,305 6.7 -9.4°
Sets 06:57:05 0° 140° (SE) 3,224 7.0 -8.9°
